Location: *
(45.9500°N, 9.0833°E)
Time: 05:27:28
(UTC+00:00)

SR - Pass Details

Date: 16 June 2021
Orbit: 577 x 878 km, 66.7° (Epoch: 24 July)

Event Time Altitude Azimuth Distance (km) Brightness Sun altitude
Rises 01:53:56 0° 324° (NW) 3,313 ? -12.8°
Reaches altitude 10° 01:56:29 10° 320° (NW) 2,333 ? -12.6°
Maximum altitude 02:01:41 56° 243° (WSW) 862 ? -12.1°
Drops below altitude 10° 02:06:25 10° 166° (SSE) 2,120 ? -11.6°
Sets 02:08:39 0° 162° (SSE) 2,984 ? -11.3°
